Wind_Speed
55 56 56 55 54 53 51 50 48 46 46 45 43 42 40 39 39 37 36 35 34 33 31 29 28 27 26 26 26 26 26 26 27 28 29 29 30 31 32 33 34 35 36
56 55 55 55 55 54 52 50 48 47 46 45 44 43 41 40 39 38 37 36 35 34 32 30 29 28 28 27 27 27 27 27 27 28 29 30 31 32 33 34 35 36 37
55 55 55 56 55 54 53 51 49 48 47 46 45 44 42 41 39 38 37 36 35 34 33 32 30 29 29 28 28 28 28 28 28 29 30 30 31 32 33 34 36 37 38
53 54 55 56 55 54 53 52 50 49 48 47 45 44 42 40 39 38 37 36 35 35 34 33 32 31 30 29 29 29 29 29 29 30 30 32 33 33 34 35 36 38 39
52 54 54 54 54 54 54 53 52 50 49 48 46 44 43 41 40 38 37 36 36 35 34 33 32 32 30 30 30 30 30 30 30 31 31 32 33 34 35 35 37 38 40
51 52 54 54 55 55 55 55 53 51 49 48 46 45 43 42 40 39 38 37 36 35 34 33 33 32 31 31 31 31 31 31 31 32 33 33 34 34 35 36 37 39 41
50 52 53 54 56 56 55 55 54 52 50 49 47 46 44 42 41 40 39 37 36 35 35 34 33 33 32 32 32 31 31 32 32 33 33 34 35 36 36 37 38 39 41
50 51 52 53 54 55 55 55 55 52 51 50 48 46 45 43 42 41 39 38 37 36 35 35 34 33 33 33 32 32 32 33 33 34 34 35 36 36 38 39 40 41 41
48 50 51 52 53 54 54 53 54 52 51 51 49 47 45 44 42 41 40 39 37 37 36 35 35 34 34 33 33 33 34 34 34 34 35 35 36 37 39 40 41 42 43
46 48 50 50 53 54 53 53 54 53 51 50 50 48 46 44 43 42 41 39 38 38 37 36 36 35 35 34 34 35 35 34 35 35 35 35 37 38 39 41 42 43 44
44 47 49 50 52 54 55 54 53 54 52 51 50 48 47 46 44 43 41 40 39 38 37 37 37 36 36 35 35 36 36 36 36 36 35 36 37 39 40 41 42 43 44
42 45 47 49 52 53 54 54 53 53 52 52 51 49 48 47 45 43 42 41 40 39 38 38 37 37 36 36 36 36 36 36 36 36 36 37 38 39 40 41 42 43 44
41 44 46 47 50 52 52 53 53 53 52 52 51 50 48 47 45 44 43 41 40 40 39 38 38 38 37 37 36 36 36 37 36 36 36 37 39 39 40 41 42 43 43
39 43 45 47 49 50 51 53 53 53 52 52 51 50 48 46 45 44 43 42 41 40 40 39 39 39 38 38 37 37 36 36 36 36 37 38 38 39 39 41 41 42 44
38 41 44 46 48 50 51 52 53 53 52 51 50 49 48 47 45 45 44 43 41 41 40 40 39 39 38 37 37 36 36 36 36 36 37 37 38 38 39 40 41 42 43
37 41 43 44 47 49 50 51 52 53 52 52 51 49 49 48 47 46 45 44 43 42 41 40 40 39 38 37 36 35 35 36 36 36 36 37 37 38 38 39 41 42 43
37 40 43 44 45 47 48 50 51 52 52 51 51 50 49 49 48 48 47 45 44 43 41 41 40 39 38 37 36 36 36 36 35 35 36 36 37 37 38 40 41 42 42
38 40 42 44 45 46 47 49 50 51 52 51 51 49 48 49 48 48 47 46 45 43 42 41 40 39 38 37 36 36 36 36 35 35 36 36 36 37 38 39 40 40 41
38 40 42 44 46 46 47 48 49 50 50 51 50 50 49 49 48 47 46 46 45 44 42 40 40 39 38 37 36 36 36 35 35 35 35 35 35 36 37 38 38 40 42
39 40 41 43 45 46 47 49 49 49 49 50 50 49 50 49 48 47 46 45 44 43 42 40 39 38 37 36 36 35 35 35 34 35 35 34 34 35 36 37 38 39 42
39 40 41 43 44 45 46 48 49 50 50 50 50 51 50 49 48 47 46 44 44 43 41 40 39 37 36 36 35 35 35 34 34 34 33 33 33 34 35 36 38 39 42
40 40 41 43 44 44 46 46 48 49 50 51 50 50 50 49 48 47 46 44 43 41 39 38 37 36 35 35 35 35 33 33 32 32 31 32 33 34 34 36 37 40 42
40 41 41 42 43 44 45 46 48 49 49 50 51 50 49 48 47 46 45 43 42 40 39 37 36 36 35 34 34 33 31 31 31 31 31 31 32 33 34 35 38 40 41
40 41 41 43 43 44 45 46 48 49 49 49 49 49 49 48 46 45 44 43 41 40 38 37 36 35 34 33 32 31 30 30 30 30 30 30 31 32 33 36 37 39 41
39 40 40 42 43 45 45 45 46 47 47 48 48 49 48 48 47 45 44 42 40 39 38 37 36 34 33 32 31 30 29 29 28 28 29 29 30 32 33 35 37 39 41
37 39 40 40 43 45 46 45 45 46 46 46 47 47 47 46 45 44 43 41 39 39 38 37 36 34 33 31 30 29 28 27 27 27 28 29 30 31 33 35 36 39 40
Wind_Direction
219 219 219 219 219 220 220 220 220 220 221 222 223 224 225 226 228 230 232 234 236 239 244 247 252 257 262 265 270 276 281 286 289 292 296 298 302 304 307 308 310 311 314
220 219 218 218 218 219 220 220 220 220 221 222 223 223 224 225 227 229 231 233 236 239 243 247 251 257 261 265 269 275 280 284 288 291 294 298 301 303 306 307 309 311 312
219 219 217 218 218 219 219 220 220 220 221 221 222 223 224 226 227 229 231 233 236 239 243 247 251 256 260 264 269 274 278 283 287 291 293 297 300 302 304 306 308 310 311
218 218 218 218 218 217 219 220 219 220 220 221 222 223 224 225 226 228 231 234 237 240 243 247 251 255 258 263 268 274 278 282 286 289 292 296 299 301 303 305 307 309 310
218 217 217 217 217 217 217 218 219 220 220 220 221 222 223 224 226 228 231 234 237 240 244 247 250 254 258 262 268 273 277 281 284 288 292 296 298 300 303 305 307 309 310
219 218 217 216 217 216 216 217 218 218 219 220 221 222 223 225 227 228 232 235 238 241 244 246 250 253 258 262 266 271 276 279 282 287 291 295 297 299 302 304 306 308 309
219 219 218 216 216 217 217 217 217 218 219 220 220 222 223 225 227 229 232 235 238 241 244 247 250 254 258 261 265 270 274 278 282 286 290 293 296 299 301 303 305 307 309
220 219 219 218 217 218 219 218 217 217 218 219 220 222 223 225 227 229 232 235 239 241 244 246 249 253 256 260 265 269 273 277 282 286 290 293 295 298 301 303 305 307 309
221 221 220 220 217 217 218 219 218 217 218 219 220 221 222 225 227 228 231 234 237 240 243 246 249 252 256 260 264 268 272 277 282 285 289 291 294 297 300 302 305 307 309
223 222 220 220 218 217 217 218 219 219 219 219 220 221 222 224 227 228 231 233 236 240 243 246 249 253 256 260 263 267 272 277 281 284 288 291 293 297 300 302 304 307 309
224 222 221 220 219 217 217 217 218 218 220 220 220 222 223 225 227 229 231 234 236 239 242 245 249 252 256 259 263 268 272 276 280 283 287 290 293 296 299 301 304 307 309
223 222 221 220 219 218 217 217 217 219 220 221 221 222 224 226 227 229 231 234 237 239 242 244 248 252 256 260 264 268 272 276 279 282 285 288 292 295 298 301 304 307 309
223 221 221 220 219 219 218 217 217 218 219 221 221 222 223 225 227 229 231 234 236 239 241 243 248 252 256 259 263 268 272 276 279 282 285 288 292 294 297 301 304 306 309
224 221 221 219 218 218 218 219 218 218 219 221 222 223 224 225 227 229 231 233 236 239 241 244 248 252 256 259 262 267 271 275 278 281 285 288 291 294 297 301 304 307 310
226 223 222 219 219 218 218 218 218 218 219 221 222 223 225 225 226 228 231 233 236 239 242 245 249 252 255 258 263 266 270 273 277 281 284 287 291 294 298 302 305 308 310
227 224 222 220 219 219 219 219 218 219 220 222 223 223 225 225 227 228 230 233 236 238 241 245 248 252 255 258 261 265 268 273 277 280 283 287 291 294 298 301 305 308 310
227 224 224 222 221 220 220 220 221 220 221 223 223 223 224 225 226 228 230 234 236 239 242 245 249 251 254 257 260 264 268 272 276 280 283 287 291 294 298 302 305 307 311
225 223 223 223 222 222 222 221 222 222 222 223 223 223 223 224 225 229 231 233 236 239 242 245 248 251 254 257 260 264 269 272 276 279 283 287 291 295 298 302 305 308 312
224 222 222 222 221 222 223 223 223 224 224 224 223 224 225 225 227 229 231 234 236 238 242 246 248 250 254 257 261 264 268 272 275 278 283 287 291 295 298 302 306 309 312
223 221 221 220 221 222 223 224 224 224 225 225 225 225 225 226 228 231 233 234 237 240 242 245 248 251 254 258 262 264 268 271 275 279 283 287 292 295 300 304 307 309 313
222 221 220 221 221 222 223 224 223 224 225 225 226 226 227 228 229 231 234 235 238 239 241 245 248 250 253 258 261 264 268 271 274 279 283 287 292 296 301 304 307 310 314
223 220 219 221 222 222 224 224 223 223 224 225 226 226 227 228 229 231 233 235 238 239 241 245 247 249 253 256 260 264 267 270 275 279 282 287 292 297 301 305 308 312 315
226 223 222 222 224 224 224 223 222 222 223 225 226 227 227 227 229 231 233 236 237 239 242 245 247 251 254 257 262 265 266 270 274 278 283 288 293 298 302 305 309 313 316
229 227 225 224 224 225 224 224 223 223 224 225 227 227 228 228 229 231 233 235 237 239 241 243 247 251 254 258 260 264 267 270 274 279 284 289 294 299 303 306 310 314 317
230 228 228 227 225 224 224 223 223 224 225 226 226 228 228 229 229 231 232 233 235 238 240 243 246 250 253 256 258 262 265 269 273 280 286 291 295 300 304 308 311 315 318
230 229 229 228 227 226 225 224 224 224 224 225 226 227 228 228 229 229 230 232 235 237 240 242 244 247 250 253 256 259 263 268 275 282 287 292 296 301 305 309 312 316 318
Height
5669 5677 5686 5694 5703 5711 5718 5725 5732 5739 5745 5751 5757 5763 5769 5774 5778 5783 5787 5790 5794 5797 5800 5802 5804 5806 5807 5807 5808 5808 5808 5807 5806 5804 5803 5801 5798 5796 5793 5789 5786 5783 5779
5658 5667 5676 5684 5693 5702 5709 5717 5724 5731 5738 5744 5750 5756 5761 5766 5771 5775 5779 5783 5787 5790 5793 5796 5798 5800 5801 5802 5802 5802 5802 5801 5800 5799 5797 5795 5793 5790 5787 5783 5780 5776 5772
5648 5657 5666 5675 5683 5693 5701 5709 5716 5723 5730 5736 5741 5747 5753 5758 5764 5768 5773 5777 5780 5783 5786 5789 5791 5793 5795 5796 5796 5796 5796 5795 5794 5793 5791 5789 5787 5784 5781 5777 5774 5770 5766
5638 5647 5656 5665 5674 5684 5692 5700 5707 5714 5721 5727 5734 5740 5747 5752 5757 5761 5766 5770 5773 5777 5780 5782 5785 5786 5788 5789 5790 5790 5789 5789 5788 5786 5785 5783 5780 5778 5775 5771 5767 5763 5759
5629 5638 5647 5656 5665 5674 5682 5691 5698 5705 5712 5719 5726 5733 5739 5745 5749 5754 5758 5762 5766 5769 5772 5775 5778 5780 5781 5782 5783 5783 5783 5782 5781 5780 5778 5776 5773 5771 5768 5765 5760 5756 5751
5620 5628 5637 5646 5655 5663 5672 5680 5688 5697 5704 5711 5718 5725 5731 5737 5742 5747 5751 5755 5759 5762 5765 5768 5770 5772 5774 5775 5776 5776 5776 5775 5774 5773 5771 5769 5767 5764 5761 5758 5754 5749 5744
5611 5619 5627 5637 5646 5654 5663 5671 5680 5688 5696 5704 5711 5718 5724 5729 5734 5739 5744 5748 5752 5755 5758 5761 5763 5765 5767 5768 5768 5769 5769 5768 5767 5766 5764 5762 5759 5757 5753 5750 5746 5742 5737
5602 5610 5618 5627 5636 5645 5654 5663 5672 5680 5688 5696 5703 5710 5715 5721 5727 5732 5736 5740 5744 5747 5750 5753 5755 5757 5759 5760 5761 5761 5761 5761 5760 5758 5757 5755 5752 5749 5746 5743 5739 5735 5730
5594 5602 5610 5618 5627 5636 5645 5654 5664 5671 5679 5688 5695 5701 5707 5713 5719 5724 5728 5733 5736 5739 5742 5745 5748 5750 5751 5752 5753 5754 5754 5753 5752 5751 5750 5747 5745 5742 5738 5735 5730 5727 5722
5586 5593 5601 5609 5618 5628 5637 5645 5654 5663 5671 5678 5686 5693 5699 5705 5711 5715 5720 5725 5729 5732 5735 5738 5740 5742 5744 5745 5746 5746 5746 5746 5745 5744 5742 5740 5737 5734 5731 5727 5723 5718 5713
5578 5585 5593 5601 5609 5618 5627 5636 5645 5654 5661 5669 5677 5684 5691 5697 5702 5707 5712 5716 5720 5724 5727 5730 5732 5734 5736 5737 5738 5739 5739 5738 5738 5736 5735 5732 5730 5727 5723 5719 5715 5710 5705
5570 5577 5584 5592 5600 5609 5619 5627 5636 5645 5653 5661 5668 5675 5682 5688 5693 5699 5704 5708 5712 5716 5719 5722 5725 5727 5728 5729 5730 5731 5731 5731 5730 5729 5727 5725 5722 5719 5715 5711 5707 5702 5697
5562 5568 5576 5584 5592 5601 5610 5619 5628 5637 5645 5652 5659 5666 5673 5679 5685 5691 5695 5700 5704 5708 5711 5714 5717 5719 5720 5722 5722 5723 5723 5723 5722 5721 5719 5717 5714 5711 5707 5703 5699 5694 5689
5554 5560 5568 5576 5584 5592 5601 5610 5619 5628 5636 5643 5650 5658 5665 5671 5677 5682 5687 5691 5696 5699 5703 5706 5708 5710 5712 5713 5714 5715 5715 5715 5714 5713 5711 5709 5706 5703 5700 5696 5691 5686 5681
5547 5553 5560 5568 5575 5584 5593 5601 5610 5618 5626 5634 5641 5649 5656 5662 5668 5673 5678 5683 5687 5691 5694 5697 5700 5702 5704 5705 5706 5707 5707 5707 5706 5705 5703 5701 5698 5695 5692 5688 5683 5678 5673
5540 5546 5553 5560 5567 5576 5584 5592 5601 5609 5617 5625 5632 5640 5646 5653 5659 5664 5669 5674 5678 5682 5685 5688 5691 5693 5696 5697 5698 5698 5699 5699 5698 5697 5695 5693 5690 5687 5684 5680 5675 5670 5665
5533 5539 5545 5552 5560 5568 5576 5585 5593 5600 5608 5616 5623 5630 5636 5643 5649 5655 5660 5665 5669 5673 5676 5680 5682 5685 5687 5688 5689 5690 5691 5691 5690 5689 5687 5685 5683 5679 5676 5672 5667 5662 5656
5526 5532 5538 5545 5552 5560 5568 5576 5584 5591 5599 5607 5614 5620 5627 5633 5639 5645 5650 5655 5660 5664 5668 5671 5674 5676 5678 5679 5681 5682 5682 5682 5682 5681 5679 5677 5674 5671 5668 5664 5659 5654 5649
5518 5524 5530 5537 5544 5552 5560 5568 5575 5582 5590 5597 5604 5611 5617 5624 5630 5635 5641 5646 5650 5655 5658 5662 5665 5667 5669 5671 5672 5673 5674 5674 5674 5673 5671 5669 5667 5664 5660 5656 5652 5646 5641
5511 5517 5523 5529 5536 5544 5551 5558 5566 5573 5581 5588 5595 5602 5608 5614 5620 5626 5631 5636 5641 5645 5649 5653 5656 5659 5661 5663 5664 5665 5666 5666 5666 5665 5663 5662 5659 5656 5652 5648 5644 5638 5633
5503 5509 5515 5521 5528 5535 5542 5549 5556 5564 5572 5578 5585 5592 5599 5605 5611 5617 5622 5627 5632 5636 5640 5644 5647 5650 5653 5654 5656 5657 5658 5658 5657 5657 5655 5654 5651 5648 5644 5640 5636 5631 5625
5495 5500 5507 5513 5519 5526 5533 5540 5547 5554 5561 5569 5576 5582 5589 5596 5602 5608 5613 5618 5623 5627 5632 5635 5639 5641 5644 5646 5647 5649 5650 5650 5650 5649 5647 5646 5643 5640 5637 5633 5628 5623 5617
5486 5492 5498 5504 5511 5517 5523 5530 5537 5544 5551 5559 5566 5572 5579 5586 5592 5598 5604 5609 5614 5619 5623 5627 5631 5634 5636 5638 5640 5641 5641 5642 5642 5641 5640 5638 5635 5632 5629 5625 5620 5615 5609
5477 5483 5489 5495 5501 5507 5514 5521 5528 5535 5542 5549 5556 5563 5570 5576 5583 5589 5595 5600 5605 5610 5615 5619 5623 5625 5628 5630 5632 5633 5634 5634 5634 5633 5632 5630 5628 5625 5621 5617 5613 5608 5602
5468 5473 5479 5485 5492 5498 5505 5512 5518 5525 5532 5540 5547 5553 5560 5567 5574 5580 5586 5592 5598 5603 5607 5611 5615 5618 5620 5623 5624 5625 5626 5626 5627 5626 5624 5623 5620 5618 5614 5610 5605 5600 5594
5459 5464 5470 5476 5482 5488 5495 5502 5509 5516 5523 5530 5537 5544 5551 5558 5565 5571 5577 5583 5589 5593 5598 5603 5606 5609 5612 5614 5616 5618 5619 5619 5619 5619 5617 5615 5613 5610 5607 5603 5598 5593 5587